Erzurum, Turkey

5:16 AM EEST on August 28, 2016 (GMT +0300)
Erzurum

Weather History for LTCE - August, 2013

Change the Weather History Date:

Tuesday, August 20, 2013

  Actual Average Record
Temperature  
Mean Temperature 61 °F -  
Max Temperature 76 °F 75 °F 91 °F (2016)
Min Temperature 46 °F 47 °F 42 °F (1996)
Degree Days  
Heating Degree Days 4    
Growing Degree Days 11 (Base 50)    
Moisture  
Dew Point 48 °F    
Average Humidity 65    
Maximum Humidity 100    
Minimum Humidity 22    
Precipitation  
Precipitation 0.02 in 0.03 in - ()
Sea Level Pressure  
Sea Level Pressure 30.07 in    
Wind  
Wind Speed 6 mph ()    
Max Wind Speed 15 mph    
Max Gust Speed -    
Visibility 6.7 miles    
Events Rain , Thunderstorm    
Averages and records for this station are not official NWS values.
T = Trace of Precipitation, MM = Missing Value Source: Averaged Metar Reports

Daily Weather History Graph

Daily Weather History Graph

Search for Another Location

Airport or City:

Trip Planner

Search our weather history database for the weather conditions in past years. The results will help you decide how hot, cold, wet, or windy it might be!

Date:

Astronomy

Aug. 20, 2013 Rise Set
Actual Time 5:31 AM EEST 7:05 PM EEST
Civil Twilight 5:03 AM EEST 7:33 PM EEST
Nautical Twilight 4:28 AM EEST 8:07 PM EEST
Astronomical Twilight 3:51 AM EEST 8:44 PM EEST
Moon 6:22 PM EEST (8/20) 4:35 AM EEST (8/20)
Length of Visible Light 14h 30m
Length of Day
13h 33m
Waxing Gibbous, 99% of the Moon is Illuminated
Aug 20
Waxing Gibbous
Aug 21
Full
Aug 28
Last Quarter
Sep 5
New
Sep 12
First Quarter

Hourly Weather History & Observations

Time (EEST) Temp. Dew Point Humidity Pressure Visibility Wind Dir Wind Speed Gust Speed Precip Events Conditions
12:20 AM 51.8 °F 50.0 °F 94% 30.09 in 6.2 mi NE 4.6 mph - N/A   Scattered Clouds
12:50 AM 53.6 °F 48.2 °F 82% 30.09 in 6.2 mi ENE 5.8 mph - N/A   Scattered Clouds
1:20 AM 53.6 °F 48.2 °F 82% 30.09 in 6.2 mi East 4.6 mph - N/A   Partly Cloudy
1:50 AM 53.6 °F 48.2 °F 82% 30.09 in - NE 3.5 mph - N/A   Clear
2:20 AM 53.6 °F 48.2 °F 82% 30.09 in - ENE 3.5 mph - N/A   Clear
2:50 AM 51.8 °F 48.2 °F 88% 30.09 in - ENE 3.5 mph - N/A   Clear
3:00 AM 51 °F 48 °F 85%  in 12 mi ENE 3.5 mph - -   Partly Cloudy
3:20 AM 50.0 °F 48.2 °F 94% 30.09 in - Calm Calm - N/A   Clear
3:50 AM 50.0 °F 48.2 °F 94% 30.06 in - Variable 2.3 mph - N/A   Clear
4:20 AM 48.2 °F 48.2 °F 100% 30.09 in - Variable 1.2 mph - N/A   Clear
4:50 AM 48.2 °F 48.2 °F 100% 30.09 in - Calm Calm - N/A   Clear
5:20 AM 48.2 °F 46.4 °F 93% 30.09 in - Variable 2.3 mph - N/A   Clear
5:50 AM 46.4 °F 44.6 °F 93% 30.09 in - Variable 1.2 mph - N/A   Clear
6:20 AM 48.2 °F 46.4 °F 93% 30.09 in 6.2 mi Variable 2.3 mph - N/A   Partly Cloudy
6:50 AM 51.8 °F 48.2 °F 88% 30.09 in 6.2 mi Variable 2.3 mph - N/A   Partly Cloudy
7:20 AM 55.4 °F 50.0 °F 82% 30.09 in 6.2 mi Calm Calm - N/A   Partly Cloudy
7:50 AM 59.0 °F 51.8 °F 77% 30.09 in 6.2 mi NE 6.9 mph - N/A   Partly Cloudy
8:20 AM 60.8 °F 50.0 °F 68% 30.09 in 6.2 mi ENE 9.2 mph - N/A   Partly Cloudy
8:50 AM 62.6 °F 50.0 °F 63% 30.09 in 6.2 mi ENE 10.4 mph - N/A   Partly Cloudy
9:00 AM 63 °F 50 °F 52%  in 12 mi ENE 10.4 mph - -   Scattered Clouds
9:20 AM 64.4 °F 50.0 °F 59% 30.09 in 6.2 mi East 13.8 mph - N/A   Partly Cloudy
9:50 AM 64.4 °F 50.0 °F 59% 30.09 in 6.2 mi ENE 10.4 mph - N/A   Partly Cloudy
10:20 AM 68.0 °F 50.0 °F 52% 30.06 in 6.2 mi ENE 11.5 mph - N/A   Partly Cloudy
10:50 AM 69.8 °F 48.2 °F 46% 30.06 in 6.2 mi ENE 12.7 mph - N/A   Partly Cloudy
11:20 AM 71.6 °F 50.0 °F 46% 30.06 in 6.2 mi East 10.4 mph - N/A   Partly Cloudy
11:50 AM 71.6 °F 48.2 °F 43% 30.06 in 6.2 mi East 9.2 mph - N/A   Partly Cloudy
12:20 PM 73.4 °F 48.2 °F 41% 30.04 in 6.2 mi East 10.4 mph - N/A   Partly Cloudy
12:50 PM 75.2 °F 46.4 °F 36% 30.04 in 6.2 mi East 10.4 mph - N/A   Scattered Clouds
1:20 PM 73.4 °F 46.4 °F 38% 30.04 in 6.2 mi East 9.2 mph - N/A   Mostly Cloudy
1:37 PM 73.4 °F 44.6 °F 36% 30.04 in 6.2 mi ENE 8.1 mph - N/A   Mostly Cloudy
1:43 PM 73.4 °F 44.6 °F 36% 30.04 in 6.2 mi ENE 8.1 mph - N/A Thunderstorm Thunderstorm
1:50 PM 73.4 °F 44.6 °F 36% 30.04 in 6.2 mi East 8.1 mph - N/A Thunderstorm Thunderstorm
2:20 PM 73.4 °F 46.4 °F 38% 30.04 in 6.2 mi ESE 11.5 mph - N/A Thunderstorm Thunderstorm
2:50 PM 75.2 °F 41.0 °F 29% 30.01 in 6.2 mi SSE 10.4 mph - N/A Thunderstorm Thunderstorm
3:00 PM 75 °F 44 °F 22%  in 12 mi SSE 11.5 mph - - Thunderstorm Thunderstorm
3:20 PM 75.2 °F 42.8 °F 31% 30.01 in 6.2 mi Variable 8.1 mph - N/A   Mostly Cloudy
3:50 PM 71.6 °F 44.6 °F 38% 30.01 in 6.2 mi SE 15.0 mph - N/A   Mostly Cloudy
4:20 PM 69.8 °F 42.8 °F 38% 30.04 in 6.2 mi South 9.2 mph - N/A   Mostly Cloudy
4:34 PM 69.8 °F 46.4 °F 43% 30.04 in 6.2 mi South 3.5 mph - N/A Rain , Thunderstorm Light Thunderstorms and Rain
4:50 PM 69.8 °F 46.4 °F 43% 30.04 in 6.2 mi Variable 3.5 mph - N/A Rain , Thunderstorm Light Thunderstorms and Rain
5:20 PM 69.8 °F 44.6 °F 40% 30.04 in 6.2 mi Variable 5.8 mph - N/A   Mostly Cloudy
5:50 PM 68.0 °F 42.8 °F 40% 30.04 in 6.2 mi East 9.2 mph - N/A   Mostly Cloudy
6:20 PM 64.4 °F 48.2 °F 56% 30.06 in 6.2 mi ESE 6.9 mph - N/A Rain , Thunderstorm Light Thunderstorms and Rain
6:50 PM 60.8 °F 51.8 °F 72% 30.09 in 6.2 mi SE 4.6 mph - N/A   Mostly Cloudy
7:20 PM 60.8 °F 50.0 °F 68% 30.09 in 6.2 mi NE 5.8 mph - N/A   Mostly Cloudy
7:50 PM 60.8 °F 51.8 °F 72% 30.09 in 6.2 mi NNE 9.2 mph - N/A   Mostly Cloudy
8:20 PM 59.0 °F 51.8 °F 77% 30.09 in 6.2 mi NE 12.7 mph - N/A   Mostly Cloudy
8:50 PM 59.0 °F 51.8 °F 77% 30.12 in 6.2 mi ENE 6.9 mph - N/A   Mostly Cloudy
9:00 PM 59 °F 52 °F 71%  in 12 mi ENE 6.9 mph - -   Partly Cloudy
9:15 PM 59.0 °F 51.8 °F 77% 30.12 in 6.2 mi East 8.1 mph - N/A Rain Light Rain Showers
9:20 PM 59.0 °F 51.8 °F 77% 30.12 in 6.2 mi East 8.1 mph - N/A Rain Light Rain Showers
9:50 PM 59.0 °F 53.6 °F 82% 30.09 in 6.2 mi East 6.9 mph - N/A Rain Light Rain Showers
10:20 PM 57.2 °F 50.0 °F 77% 30.09 in 6.2 mi ESE 13.8 mph - N/A   Mostly Cloudy
10:41 PM 57.2 °F 51.8 °F 82% 30.09 in 6.2 mi East 10.4 mph - N/A Rain Light Rain Showers
10:50 PM 57.2 °F 53.6 °F 88% 30.09 in 6.2 mi ENE 9.2 mph - N/A Rain Light Rain Showers
11:20 PM 57.2 °F 51.8 °F 82% 30.09 in 6.2 mi NE 9.2 mph - N/A   Mostly Cloudy
11:50 PM 57.2 °F 50.0 °F 77% 30.06 in 6.2 mi ENE 12.7 mph - N/A   Mostly Cloudy